Regional Weather Roundup
Issued by NWS Upton, NY

Current Version | Previous Version | Text Only | Print | Product List | Glossary On
Versions: 1 2 3 4 5 6 7 8 9 10 11 12 13 14 15 16 17 18 19 20 21 22 23 24 25 26 27 28 29 30 31 32 33 34 35 36 37 38 39 40 41 42 43 44 45 46 47 48 49 50
000 ASUS41 KOKX 031218 RWROKX REGIONAL WEATHER ROUNDUP NATIONAL WEATHER SERVICE NEW YORK NY 800 AM EDT FRI JUL 03 2015 NOTE: "FAIR" INDICATES FEW OR NO CLOUDS BELOW 12,000 FEET WITH NO SIGNIFICANT WEATHER AND/OR OBSTRUCTIONS TO VISIBILITY. NYZ071-072-176-178-NJZ106-104-031300- NEW YORK CITY METRO AREA CITY SKY/WX TMP DP RH WIND PRES REMARKS CENTRAL PARK SUNNY 68 51 54 VRB7 30.00R LAGUARDIA APRT MOSUNNY 69 51 52 N10 29.97R KENNEDY INTL MOSUNNY 70 52 52 N10 29.97R NEWARK/LIBERTY MOSUNNY 70 55 59 N13 29.97R BRNX BOT. GARD N/A 68 50 52 NE8 29.99R TETERBORO SUNNY 69 51 52 N7 29.97R $$ NYZ177-179-078>081-031300- LONG ISLAND NEW YORK CITY SKY/WX TMP DP RH WIND PRES REMARKS FARMINGDALE SUNNY 69 50 50 N12 29.96R ISLIP MOSUNNY 68 55 63 N12 29.95R SHIRLEY SUNNY 67 57 70 N5 29.96R WESTHAMPTON SUNNY 67 60 78 N8 29.97R MONTAUK POINT N/A 67 59 75 NW6 29.95R $$ NYZ052-065-067-031300- HUDSON VALLEY CITY SKY/WX TMP DP RH WIND PRES REMARKS WHITE PLAINS SUNNY 65 50 58 N12 29.97R NEWBURGH SUNNY 63 54 72 E8 30.01R MONTGOMERY SUNNY 63 56 78 CALM 30.00R POUGHKEEPSIE SUNNY 62 52 69 CALM 29.99R ALBANY MOSUNNY 61 50 67 CALM 30.01R $$ NJZ001-105-106-008-010-013-015-019>022-104-031300- NEW JERSEY CITY SKY/WX TMP DP RH WIND PRES REMARKS NEWARK/LIBERTY MOSUNNY 70 55 59 N13 29.97R TETERBORO SUNNY 69 51 52 N7 29.97R CALDWELL PTSUNNY 67 55 65 VRB3 29.99R MORRISTOWN MOSUNNY 70 64 83 NE5 29.98R SOMERVILLE SUNNY 67 56 67 N5 29.96R SUSSEX SUNNY 62 55 77 CALM 30.00R ANDOVER N/A 63 55 75 VRB5 30.01R TRENTON SUNNY 68 59 73 N6 29.97R MILLVILLE PTSUNNY 67 65 93 CALM 29.96R FOG ATLANTIC CITY MOSUNNY 68 63 84 N5 29.96R WRIGHTSTOWN SUNNY 68 61 78 NE7 29.95R TOMS RIVER SUNNY 66 63 88 NE6 29.97R BELMAR SUNNY 66 57 72 N5 29.97R $$ PAZ047>061-062-071-031300- EASTERN PENNSYLVANIA CITY SKY/WX TMP DP RH WIND PRES REMARKS PHILADELPHIA PTSUNNY 71 58 63 NE7 29.97R ALLENTOWN SUNNY 66 54 65 NE6 29.99R SCRANTON PTSUNNY 63 52 67 NE5 30.02R $$ CTZ002-004>006-009-010-012-RIZ004-006-007-MAZ004-011-015-031300- SOUTHERN NEW ENGLAND IN CT CITY SKY/WX TMP DP RH WIND PRES REMARKS BRADLEY INTL MOSUNNY 64 51 62 N7 29.97R HARTFORD SUNNY 64 52 64 N8 29.96S DANBURY SUNNY 64 49 57 CALM 30.00R WTRBRY/OXFORD SUNNY 63 48 59 N7 29.99R BRIDGEPORT SUNNY 68 51 54 N10 29.96R MERIDEN SUNNY 66 51 58 N9 29.96R NEW HAVEN SUNNY 66 51 58 N13 29.96R CHESTER FAIR 66 54 63 N7 29.97R GROTON SUNNY 67 55 65 N10 29.93R WILLIMANTIC SUNNY 64 55 72 NW3 29.96R IN RI CITY SKY/WX TMP DP RH WIND PRES REMARKS PROVIDENCE SUNNY 69 51 52 N9G18 29.94R BLOCK ISLAND SUNNY 66 57 72 N8 29.93R WESTERLY SUNNY 68 56 65 N7 29.94R IN MA CITY SKY/WX TMP DP RH WIND PRES REMARKS BOSTON MOSUNNY 68 49 50 N10 29.95R WORCESTER SUNNY 65 44 46 N9 29.97R WESTFIELD SUNNY 63 51 65 N6 29.98R PROVINCETOWN SUNNY 64 9 11 N10 29.93R NANTUCKET MOSUNNY 70 65 84 NW8 29.89R $$ ANZ330-335-338-340-345-350-353-355-031300- COASTAL MARINE OBSERVATIONS STATION/POSITION TIME SKY/WX TEMP WIND PRES VSBY WAVE AIR SEA DIR/SP/G HT/PER (UTC) (F) (DEG/KT/KT) (MB) (MI) (FT/S) NY HARB ENTRANCE 1150 69 68 10/ 12/ 14 1013.7 3/ 8 4S FIRE IS 1103 69 N/A 3/ 9 20S FIRE ISLAND 1150 67 67 10/ 8/ 10 1013.7 3/ 8 GREAT SOUTH BAY 1115 67 74 340/ 8/ 12 N/A 23SW MTP 1150 65 65 340/ 10/ 10 1013.1 3/ 8 HUDSON CANYON NOT AVBL KINGS POINT 1100 66 64 20/ 5/ 7 1013.7 CENTRAL LI SOUND NOT AVBL EASTERN LI SOUND 1100 70 64 350/ 8/ 12 N/A ROBBINS REEF 1100 67 360/ 9/ 10 1013.2 $$ >>>>>>>>>>>>>>>>>>>>>>>>>>>> KEY <<<<<<<<<<<<<<<<<<<<<<<<<<< > < > SKY/WX - SKY CONDITION/PRESENT WEATHER < > TMP - TEMPERATURE IN FAHRENHEIT < > DP - DEWPOINT IN FAHRENHEIT < > RH - RELATIVE HUMIDITY IN PERCENT < > WIND - DIRECTION AND SPEED IN MPH < > PRES - MEAN SEA LEVEL PRESSURE IN INCHES OF HG < > WCI - WIND CHILL INDEX < > VSB - VISIBILITY IN MILES < > HX - HEAT INDEX < > TC - TEMPERATURE IN CELSIUS < > VRB - VARIABLE WIND DIRECTION < > < >>>>>>>>>>>>>>>>>>>>>>>>>>>> KEY <<<<<<<<<<<<<<<<<<<<<<<<<<<

USA.gov is the U.S. government's official web portal to all federal, state and local government web resources and services.